User: anonymous   Login
Location: Lawrence Hall of Science
(37.8785°N, 122.2415°W)
Time: 05:40:07
(UTC-07:00)
Language:

ARGOS - Orbit

View from above orbital plane
View from above orbital plane
View from above satellite
View from above satellite

Ground track
Ground track

The orbit data is extracted from the following two-line orbital elements,

1 25634U 99008A   16180.16098151 -.00000025  00000-0  85769-5 0  9991
2 25634  98.6674 245.5233 0010887 143.8294 216.3621 14.19290816898244
Epoch (UTC): 28 June 2016 03:51:48
Eccentricity: 0.0010887
inclination: 98.6674°
perigee height: 820 km
apogee height: 835 km
right ascension of ascending node: 245.5233°
argument of perigee: 143.8294°
revolutions per day: 14.19290816
mean anomaly at epoch: 216.3621°
orbit number at epoch: 89824

The dashed part of the orbit path shows where the satellite is in the earth's shadow,  

DLR